�������l�o���
Date,Time,MP-1(��Sv/h),MP-2(��Sv/h),MP-3(��Sv/h),MP-4(��Sv/h),MP-5(��Sv/h),MP-6(��Sv/h),MP-7(��Sv/h),MP-8(��Sv/h),����,����(m/s),���J
2018/08/20,00:00,0.858,1.264,0.889,1.582,1.151,0.480,0.836,0.790,��,7.5,��
2018/08/20,00:10,0.856,1.263,0.886,1.583,1.152,0.478,0.836,0.791,��,7.0,��
2018/08/20,00:20,0.857,1.264,0.886,1.582,1.148,0.478,0.836,0.790,��쐼,6.0,��
2018/08/20,00:30,0.855,1.262,0.887,1.582,1.152,0.479,0.837,0.790,��쐼,4.6,��
2018/08/20,00:40,0.857,1.262,0.886,1.584,1.149,0.478,0.836,0.789,�쐼,3.6,��
2018/08/20,00:50,0.856,1.264,0.887,1.581,1.149,0.478,0.835,0.790,���쐼,3.6,��
2018/08/20,01:00,0.856,1.262,0.885,1.583,1.149,0.478,0.836,0.793,�쐼,3.6,��
2018/08/20,01:10,0.857,1.262,0.887,1.582,1.150,0.480,0.836,0.792,�쐼,4.6,��
2018/08/20,01:20,0.855,1.262,0.886,1.582,1.150,0.477,0.834,0.791,�쐼,5.3,��
2018/08/20,01:30,0.856,1.264,0.888,1.583,1.147,0.477,0.837,0.791,�쐼,4.7,��
2018/08/20,01:40,0.856,1.261,0.886,1.582,1.148,0.478,0.836,0.789,�쐼,4.9,��
2018/08/20,01:50,0.854,1.262,0.886,1.584,1.148,0.479,0.837,0.792,�쐼,4.4,��
2018/08/20,02:00,0.858,1.261,0.887,1.583,1.148,0.479,0.837,0.789,�쐼,4.0,��
2018/08/20,02:10,0.859,1.260,0.886,1.583,1.150,0.479,0.837,0.790,�쐼,3.5,��
2018/08/20,02:20,0.857,1.261,0.886,1.584,1.150,0.478,0.834,0.790,���쐼,4.2,��
2018/08/20,02:30,0.856,1.261,0.887,1.582,1.149,0.477,0.836,0.791,���쐼,3.3,��
2018/08/20,02:40,0.856,1.259,0.885,1.582,1.148,0.480,0.836,0.793,���쐼,2.5,��
2018/08/20,02:50,0.856,1.262,0.886,1.584,1.147,0.478,0.836,0.790,��,2.3,��
2018/08/20,03:00,0.856,1.259,0.885,1.582,1.150,0.478,0.836,0.791,�k��,1.2,��
2018/08/20,03:10,0.857,1.261,0.887,1.582,1.151,0.479,0.835,0.791,�k��,1.7,��
2018/08/20,03:20,0.855,1.261,0.884,1.583,1.152,0.478,0.836,0.790,�k��,1.5,��
2018/08/20,03:30,0.855,1.262,0.884,1.582,1.147,0.477,0.835,0.790,��,1.7,��
2018/08/20,03:40,0.858,1.262,0.885,1.583,1.148,0.477,0.836,0.789,���쐼,1.9,��
2018/08/20,03:50,0.855,1.259,0.885,1.582,1.149,0.477,0.834,0.790,���쐼,2.8,��
2018/08/20,04:00,0.855,1.260,0.884,1.582,1.150,0.478,0.837,0.790,�쐼,3.0,��
2018/08/20,04:10,0.854,1.259,0.884,1.584,1.148,0.477,0.836,0.788,�쐼,2.6,��
2018/08/20,04:20,0.855,1.260,0.885,1.583,1.150,0.478,0.834,0.791,�쐼,2.5,��
2018/08/20,04:30,0.852,1.260,0.885,1.582,1.149,0.476,0.836,0.790,�쐼,2.3,��
2018/08/20,04:40,0.853,1.260,0.885,1.582,1.146,0.478,0.836,0.789,��쐼,2.5,��
2018/08/20,04:50,0.856,1.260,0.886,1.582,1.150,0.477,0.836,0.791,��쐼,2.3,��
2018/08/20,05:00,0.855,1.259,0.885,1.584,1.147,0.475,0.835,0.789,�쐼,1.5,��
2018/08/20,05:10,0.855,1.259,0.884,1.580,1.148,0.476,0.835,0.790,���쐼,1.7,��
2018/08/20,05:20,0.854,1.259,0.884,1.584,1.147,0.477,0.836,0.788,�쐼,2.5,��
2018/08/20,05:30,0.855,1.260,0.884,1.584,1.148,0.477,0.835,0.789,���쐼,2.6,��
2018/08/20,05:40,0.854,1.261,0.884,1.581,1.148,0.475,0.836,0.791,�쐼,1.5,��
2018/08/20,05:50,0.854,1.261,0.884,1.583,1.149,0.475,0.835,0.791,-,CALM,��
2018/08/20,06:00,0.856,1.260,0.884,1.582,1.148,0.476,0.834,0.790,�쐼,0.6,��
2018/08/20,06:10,0.855,1.261,0.885,1.579,1.147,0.478,0.837,0.790,��쐼,0.9,��
2018/08/20,06:20,0.856,1.256,0.885,1.582,1.149,0.476,0.834,0.790,�쐼,1.2,��
2018/08/20,06:30,0.855,1.260,0.885,1.583,1.145,0.477,0.835,0.792,�쐼,1.5,��
2018/08/20,06:40,0.856,1.259,0.886,1.583,1.149,0.476,0.835,0.791,��쐼,1.5,��
2018/08/20,06:50,0.858,1.261,0.886,1.584,1.148,0.477,0.834,0.791,��쓌,1.5,��
2018/08/20,07:00,0.855,1.261,0.885,1.583,1.149,0.477,0.836,0.791,�쓌,1.5,��
2018/08/20,07:10,0.859,1.258,0.886,1.585,1.148,0.478,0.835,0.792,�쓌,1.5,��
2018/08/20,07:20,0.856,1.260,0.887,1.582,1.150,0.478,0.836,0.791,�쓌,2.6,��
2018/08/20,07:30,0.855,1.260,0.886,1.583,1.149,0.478,0.836,0.790,�쓌,2.3,��
2018/08/20,07:40,0.857,1.262,0.888,1.585,1.151,0.478,0.837,0.793,��쓌,2.6,��
2018/08/20,07:50,0.858,1.261,0.887,1.584,1.147,0.478,0.837,0.792,��쓌,2.6,��
2018/08/20,08:00,0.857,1.259,0.882,1.582,1.149,0.478,0.837,0.792,��쓌,3.6,��
2018/08/20,08:10,0.854,1.260,0.885,1.582,1.150,0.478,0.836,0.790,��,3.7,��
2018/08/20,08:20,0.856,1.259,0.885,1.585,1.151,0.478,0.834,0.792,��쓌,3.8,��
2018/08/20,08:30,0.855,1.261,0.884,1.586,1.149,0.476,0.836,0.788,��쓌,3.8,��
2018/08/20,08:40,0.854,1.263,0.884,1.581,1.149,0.475,0.834,0.787,��쓌,4.3,��
2018/08/20,08:50,0.855,1.256,0.883,1.582,1.146,0.475,0.834,0.788,��쓌,4.4,��
2018/08/20,09:00,0.855,1.259,0.886,1.584,1.149,0.477,0.835,0.789,��쓌,4.3,��
2018/08/20,09:10,0.852,1.258,0.884,1.583,1.151,0.475,0.837,0.789,��쓌,4.3,��
2018/08/20,09:20,0.855,1.260,0.884,1.583,1.148,0.475,0.835,0.790,��쓌,4.7,��
2018/08/20,09:30,0.856,1.259,0.884,1.582,1.148,0.476,0.835,0.789,��쓌,5.0,��
2018/08/20,09:40,0.856,1.260,0.883,1.583,1.148,0.474,0.836,0.788,��쓌,4.6,��
2018/08/20,09:50,0.856,1.261,0.886,1.585,1.149,0.478,0.836,0.788,�쓌,7.0,��
2018/08/20,10:00,0.855,1.261,0.884,1.581,1.150,0.476,0.837,0.790,��쓌,7.0,��
2018/08/20,10:10,0.854,1.260,0.886,1.582,1.150,0.477,0.836,0.789,��쓌,7.7,��
2018/08/20,10:20,0.854,1.263,0.886,1.584,1.150,0.475,0.836,0.789,��쓌,7.9,��
2018/08/20,10:30,0.856,1.263,0.886,1.583,1.152,0.476,0.837,0.788,��쓌,8.8,��
2018/08/20,10:40,0.856,1.259,0.884,1.586,1.151,0.478,0.838,0.789,��쓌,8.5,��
2018/08/20,10:50,0.857,1.261,0.884,1.584,1.151,0.478,0.837,0.791,��쓌,9.0,��
2018/08/20,11:00,0.856,1.264,0.886,1.584,1.152,0.478,0.838,0.791,��쓌,8.7,��
2018/08/20,11:10,0.856,1.264,0.886,1.582,1.150,0.478,0.840,0.789,��쓌,7.6,��
2018/08/20,11:20,0.858,1.262,0.885,1.583,1.153,0.478,0.837,0.789,��쓌,9.7,��
2018/08/20,11:30,0.857,1.266,0.883,1.582,1.154,0.478,0.837,0.789,��쓌,8.6,��
2018/08/20,11:40,0.856,1.264,0.886,1.580,1.151,0.478,0.837,0.790,��쓌,9.3,��
2018/08/20,11:50,0.857,1.264,0.888,1.584,1.153,0.477,0.837,0.789,��쓌,7.9,��
2018/08/20,12:00,0.858,1.267,0.884,1.585,1.152,0.478,0.837,0.790,��쓌,7.8,��
2018/08/20,12:10,0.858,1.265,0.888,1.583,1.154,0.479,0.837,0.791,��쓌,8.4,��
2018/08/20,12:20,0.857,1.265,0.888,1.585,1.154,0.478,0.838,0.791,��쓌,9.6,��
2018/08/20,12:30,0.857,1.265,0.888,1.584,1.153,0.477,0.836,0.791,��쓌,9.7,��
2018/08/20,12:40,0.857,1.266,0.888,1.583,1.155,0.478,0.837,0.790,��쓌,10.5,��
2018/08/20,12:50,0.859,1.265,0.888,1.580,1.155,0.479,0.835,0.790,��쓌,9.4,��
2018/08/20,13:00,0.861,1.264,0.888,1.583,1.155,0.478,0.838,0.790,��,7.6,��
2018/08/20,13:10,0.859,1.265,0.887,1.582,1.153,0.479,0.837,0.790,��쓌,10.2,��
2018/08/20,13:20,0.858,1.268,0.887,1.583,1.154,0.479,0.838,0.791,��쓌,9.8,��
2018/08/20,13:30,0.857,1.266,0.888,1.586,1.154,0.477,0.837,0.791,��쓌,9.7,��
2018/08/20,13:40,0.859,1.263,0.888,1.587,1.156,0.476,0.840,0.791,��쓌,10.2,��
2018/08/20,13:50,0.859,1.265,0.887,1.586,1.157,0.478,0.838,0.790,��쓌,10.0,��
2018/08/20,14:00,0.858,1.267,0.889,1.587,1.156,0.478,0.839,0.792,��쓌,10.3,��
2018/08/20,14:10,0.859,1.267,0.889,1.587,1.155,0.478,0.838,0.790,��쓌,8.7,��
2018/08/20,14:20,0.858,1.266,0.888,1.588,1.156,0.478,0.838,0.791,��쓌,8.5,��
2018/08/20,14:30,0.858,1.271,0.885,1.588,1.156,0.477,0.838,0.790,��쓌,10.2,��
2018/08/20,14:40,0.858,1.265,0.889,1.587,1.154,0.478,0.838,0.792,��쓌,9.6,��
2018/08/20,14:50,0.859,1.263,0.889,1.589,1.155,0.477,0.838,0.791,��쓌,9.1,��
2018/08/20,15:00,0.861,1.268,0.889,1.589,1.156,0.478,0.839,0.790,��쓌,8.6,��
2018/08/20,15:10,0.857,1.266,0.888,1.586,1.156,0.477,0.838,0.790,��쓌,9.2,��
2018/08/20,15:20,0.858,1.265,0.887,1.586,1.157,0.478,0.838,0.791,��쓌,9.4,��
2018/08/20,15:30,0.860,1.266,0.889,1.589,1.157,0.479,0.838,0.791,��쓌,7.7,��
2018/08/20,15:40,0.859,1.270,0.887,1.586,1.157,0.478,0.837,0.790,��쓌,8.6,��
2018/08/20,15:50,0.857,1.267,0.886,1.589,1.157,0.480,0.837,0.790,��쓌,7.5,��
2018/08/20,16:00,0.858,1.266,0.889,1.587,1.157,0.478,0.838,0.790,��쓌,8.3,��
2018/08/20,16:10,0.858,1.265,0.888,1.589,1.160,0.478,0.837,0.791,��쓌,8.7,��
2018/08/20,16:20,0.860,1.268,0.885,1.589,1.157,0.476,0.838,0.791,��쓌,8.4,��
2018/08/20,16:30,0.858,1.265,0.887,1.588,1.158,0.479,0.838,0.791,��쓌,7.1,��
2018/08/20,16:40,0.860,1.267,0.887,1.588,1.159,0.477,0.837,0.791,��쓌,6.3,��
2018/08/20,16:50,0.858,1.265,0.886,1.587,1.157,0.478,0.837,0.790,��쓌,7.6,��
2018/08/20,17:00,0.860,1.265,0.889,1.584,1.156,0.477,0.836,0.791,��쓌,8.2,��
2018/08/20,17:10,0.857,1.265,0.888,1.583,1.158,0.477,0.838,0.790,��쓌,8.1,��
2018/08/20,17:20,0.858,1.267,0.886,1.588,1.158,0.477,0.835,0.789,��쓌,7.8,�L
2018/08/20,17:30,0.857,1.265,0.888,1.588,1.158,0.477,0.838,0.791,��쓌,6.9,��
2018/08/20,17:40,0.858,1.265,0.889,1.588,1.156,0.479,0.838,0.791,��쓌,7.5,��
2018/08/20,17:50,0.855,1.267,0.889,1.589,1.153,0.478,0.838,0.790,��,6.2,��
2018/08/20,18:00,0.857,1.266,0.890,1.587,1.155,0.476,0.837,0.791,��,5.2,��
2018/08/20,18:10,0.857,1.265,0.890,1.590,1.154,0.477,0.838,0.791,��,4.4,��
2018/08/20,18:20,0.857,1.266,0.887,1.589,1.156,0.479,0.837,0.792,��,3.8,��
2018/08/20,18:30,0.859,1.268,0.891,1.589,1.154,0.478,0.838,0.792,��,5.4,��
2018/08/20,18:40,0.858,1.263,0.889,1.589,1.155,0.477,0.837,0.793,��쓌,5.4,��
2018/08/20,18:50,0.855,1.265,0.889,1.589,1.154,0.476,0.839,0.792,��쓌,4.5,��
2018/08/20,19:00,0.859,1.266,0.889,1.586,1.155,0.479,0.837,0.793,��,3.6,��
2018/08/20,19:10,0.859,1.267,0.889,1.589,1.154,0.478,0.838,0.792,��,2.8,��
2018/08/20,19:20,0.859,1.265,0.891,1.587,1.154,0.479,0.836,0.792,��쓌,3.6,��
2018/08/20,19:30,0.860,1.268,0.890,1.587,1.157,0.478,0.837,0.790,��쓌,4.0,��
2018/08/20,19:40,0.859,1.265,0.891,1.588,1.157,0.480,0.838,0.792,��쓌,2.6,��
2018/08/20,19:50,0.858,1.268,0.890,1.587,1.157,0.478,0.838,0.792,��쓌,3.1,��
2018/08/20,20:00,0.858,1.266,0.892,1.590,1.157,0.479,0.839,0.792,��쓌,2.9,��
2018/08/20,20:10,0.860,1.264,0.892,1.588,1.155,0.479,0.836,0.792,�쓌,3.0,��
2018/08/20,20:20,0.856,1.268,0.892,1.590,1.157,0.479,0.836,0.794,��쓌,2.5,��
2018/08/20,20:30,0.859,1.269,0.890,1.589,1.158,0.478,0.839,0.792,��쓌,2.9,��
2018/08/20,20:40,0.858,1.269,0.892,1.585,1.157,0.476,0.838,0.792,��쓌,3.4,��
2018/08/20,20:50,0.856,1.269,0.891,1.589,1.158,0.477,0.838,0.791,��쓌,3.4,��
2018/08/20,21:00,0.857,1.266,0.893,1.587,1.155,0.477,0.836,0.790,��쓌,3.6,��
2018/08/20,21:10,0.858,1.265,0.890,1.586,1.157,0.478,0.837,0.792,��쓌,3.4,��
2018/08/20,21:20,0.859,1.268,0.888,1.585,1.156,0.477,0.837,0.792,��쓌,3.2,��
2018/08/20,21:30,0.859,1.267,0.891,1.588,1.157,0.477,0.837,0.791,��쓌,3.4,��
2018/08/20,21:40,0.858,1.264,0.892,1.587,1.154,0.477,0.839,0.791,�쓌,1.2,��
2018/08/20,21:50,0.859,1.267,0.891,1.586,1.154,0.477,0.838,0.792,��,0.6,��
2018/08/20,22:00,0.860,1.269,0.892,1.587,1.153,0.479,0.838,0.793,�쓌,0.6,��
2018/08/20,22:10,0.859,1.267,0.891,1.588,1.155,0.479,0.837,0.793,���쐼,0.9,��
2018/08/20,22:20,0.859,1.270,0.892,1.590,1.154,0.479,0.836,0.791,-,CALM,��
2018/08/20,22:30,0.860,1.267,0.892,1.586,1.154,0.477,0.839,0.793,���쐼,0.8,��
2018/08/20,22:40,0.858,1.266,0.891,1.585,1.154,0.479,0.836,0.791,��쐼,2.5,��
2018/08/20,22:50,0.859,1.268,0.891,1.586,1.153,0.479,0.836,0.793,��,2.0,��
2018/08/20,23:00,0.859,1.267,0.891,1.589,1.156,0.478,0.837,0.793,��,2.6,��
2018/08/20,23:10,0.857,1.266,0.891,1.589,1.157,0.478,0.839,0.791,��,2.0,��
2018/08/20,23:20,0.860,1.267,0.892,1.588,1.155,0.480,0.838,0.794,��,2.5,��
2018/08/20,23:30,0.859,1.268,0.891,1.587,1.154,0.479,0.837,0.790,��쓌,3.1,��
2018/08/20,23:40,0.860,1.269,0.891,1.586,1.156,0.478,0.838,0.792,��쓌,3.5,��
2018/08/20,23:50,0.859,1.268,0.891,1.586,1.154,0.478,0.838,0.793,��쓌,3.4,��
